sat.trackr.live / text

‹ back to catalog

STARLINK-31783

NORAD 59750 · 2024-090W

PAYLOAD ACTIVE UNKNOWN

§ Identity

Operator
Country
US
Launch date
2024-05-13
Launch site
AFETR
Launch vehicle
Mass (kg)
RCS (m²)

Purposes: comms

External: N2YO · Heavens-Above · Gunter

§ Orbital elements

Epoch: 2026-05-24T23:32:58.899264Z

Period
94.27 min
Inclination
43.0028°
Eccentricity
0.0001231
Mean motion
15.27578790 rev/d
Perigee alt
482.2 km
Apogee alt
483.9 km
Semi-major
6,861.2 km
B*
6.7081e-5
RAAN
113.0053°
Arg perigee
268.6774°
Mean anomaly
91.3937°
Rev number
11,509

§ Raw data

STARLINK-317831 59750U 24090W   26144.98123726  .00001584  00000+0  67081-4 0  99992 59750  43.0028 113.0053 0001231 268.6774  91.3937 15.27578790115094

JSON: /api/v1/satellites/59750 · /tle

For live sub-satellite position, see the globe view (requires WebGL).

§ Visibility from observer

Set your observer location to see the next 7 days of passes ≥ 10°. The values pass through the URL so the page stays shareable.

No JS? Fill the form by hand. The geolocation button needs JavaScript.